Weather History for Jasper, TX

Change the Weather History Date:

Thursday, April 11, 2013

  Actual Average (KLFK) Record (KLFK)
Temperature  
Mean Temperature 56 °F 65 °F  
Max Temperature 67 °F 77 °F 90 °F (1927)
Min Temperature 44 °F 54 °F 31 °F (1989)
Degree Days  
Heating Degree Days 10 3  
Month to date heating degree days 38  
Since 1 July heating degree days 1882  
Cooling Degree Days 0 3  
Month to date cooling degree days 31  
Year to date cooling degree days 91  
Growing Degree Days 6 (Base 50)    
Moisture  
Dew Point 46 °F    
Average Humidity 81    
Maximum Humidity 97    
Minimum Humidity 42    
Precipitation  
Precipitation 1.48 in 0.09 in 2.17 in (1994)
Month to date precipitation 1.09  
Year to date precipitation 12.92  
Snow  
Snow 0.00 in - - ()
Month to date snowfall  
Since 1 July snowfall  
Snow Depth -    
Sea Level Pressure  
Sea Level Pressure 29.86 in    
Wind  
Wind Speed 8 mph (NNW)    
Max Wind Speed 17 mph    
Max Gust Speed 28 mph    
Visibility 9 miles    
Events Rain    
T = Trace of Precipitation, MM = Missing Value Source: NWS Daily Summary

Daily Weather History Graph

Daily Weather History Graph

Search for Another Location

Airport:

Trip Planner

Search our weather history database for the weather conditions in past years. The results will help you decide how hot, cold, wet, or windy it might be!

Date:

Astronomy

Apr. 11, 2013 Rise Set
Actual Time 6:52 AM CDT 7:41 PM CDT
Civil Twilight 6:28 AM CDT 8:06 PM CDT
Nautical Twilight 5:59 AM CDT 8:35 PM CDT
Astronomical Twilight 5:29 AM CDT 9:05 PM CDT
Moon 7:30 AM CDT (4/11) 9:09 PM CDT (4/11)
Length of Visible Light 13h 38m
Length of Day
12h 49m
New Moon, 2% of the Moon is Illuminated
Apr 11
New Moon
Apr 18
First Quarter
Apr 25
Full
May 2
Last Quarter
May 9
New

Hourly Weather History & Observations

Time (CDT) Temp. Windchill Dew Point Humidity Pressure Visibility Wind Dir Wind Speed Gust Speed Precip Events Conditions
12:15 AM 49.5 °F - 48.2 °F 95% 29.87 in 7.0 mi North 5.8 mph - 0.02 in Rain Heavy Rain
12:35 AM 49.3 °F - 47.8 °F 95% 29.86 in 1.5 mi NNW 11.5 mph 18.4 mph 0.15 in Rain Light Rain
12:55 AM 49.1 °F - 47.5 °F 94% 29.87 in 7.0 mi NNW 8.1 mph - 0.18 in Rain Rain
1:15 AM 49.1 °F - 47.5 °F 94% 29.87 in 7.0 mi NNW 6.9 mph - 0.02 in Rain Light Rain
1:35 AM 48.7 °F - 47.3 °F 95% 29.84 in 10.0 mi NNW 9.2 mph - 0.02 in   Overcast
1:55 AM 48.6 °F - 47.1 °F 95% 29.87 in 10.0 mi NNW 8.1 mph - 0.03 in Rain Rain
2:15 AM 48.4 °F - 46.9 °F 95% 29.85 in 0.2 mi NNW 9.2 mph - 0.39 in   Unknown
2:35 AM 47.8 °F - 46.4 °F 95% 29.88 in 3.0 mi WNW 9.2 mph - 0.50 in   Unknown
2:55 AM 47.5 °F - 46.0 °F 95% 29.85 in 4.0 mi NNW 9.2 mph 18.4 mph 0.57 in Rain Rain
3:15 AM 47.3 °F - 45.9 °F 95% 29.87 in 7.0 mi WNW 9.2 mph 20.7 mph 0.05 in Rain Light Rain
3:35 AM 47.3 °F - 45.9 °F 95% 29.81 in 10.0 mi NNW 13.8 mph - 0.06 in Rain Rain
3:55 AM 47.3 °F - 45.7 °F 94% 29.82 in 10.0 mi NNW 11.5 mph 18.4 mph 0.07 in Rain Light Rain
4:15 AM 47.3 °F - 45.7 °F 94% 29.78 in 10.0 mi North 17.3 mph - N/A Rain Light Rain
4:35 AM 46.9 °F - 45.3 °F 94% 29.83 in 3.0 mi Calm Calm - 0.09 in Rain Heavy Rain
4:55 AM 46.9 °F - 45.3 °F 94% 29.85 in 1.8 mi WNW 11.5 mph - 0.27 in   Overcast
5:15 AM 46.9 °F - 45.5 °F 95% 29.83 in 7.0 mi North 10.4 mph - 0.08 in Rain Rain
5:35 AM 46.9 °F - 45.7 °F 95% 29.85 in 10.0 mi WNW 11.5 mph - 0.09 in Rain Light Rain
5:55 AM 46.9 °F - 45.5 °F 95% 29.88 in 7.0 mi WNW 13.8 mph 19.6 mph 0.13 in Rain Light Rain
6:15 AM 47.1 °F - 45.5 °F 94% 29.86 in 7.0 mi NW 11.5 mph 20.7 mph 0.03 in Rain Rain
6:35 AM 46.4 °F 39.5 °F 45.0 °F 95% 29.86 in 7.0 mi NW 17.3 mph 21.9 mph 0.08 in Rain Rain
6:55 AM 45.9 °F 40.8 °F 44.4 °F 95% 29.90 in 7.0 mi WNW 10.4 mph 16.1 mph 0.13 in Rain Rain
7:15 AM 45.1 °F 40.3 °F 43.5 °F 94% 29.81 in 3.0 mi North 9.2 mph 27.6 mph 0.04 in   Unknown
7:35 AM 44.6 °F 41.4 °F 42.8 °F 93% 29.87 in 10.0 mi NNW 5.8 mph - 0.05 in Rain Light Rain
7:55 AM 45.1 °F 40.8 °F 43.2 °F 93% 29.89 in 10.0 mi NW 8.1 mph - 0.06 in Rain Rain
8:15 AM 45.1 °F 40.8 °F 43.5 °F 94% 29.90 in 10.0 mi NNW 8.1 mph - N/A Rain Light Rain
8:35 AM 45.5 °F 41.8 °F 43.9 °F 94% 29.91 in 10.0 mi NW 6.9 mph - N/A Rain Light Rain
8:55 AM 45.7 °F 41.5 °F 43.9 °F 93% 29.90 in 10.0 mi North 8.1 mph - N/A   Overcast
9:15 AM 45.9 °F 42.9 °F 43.7 °F 92% 29.92 in 10.0 mi NW 5.8 mph - 0.01 in   Mostly Cloudy
9:35 AM 46.2 °F 41.2 °F 43.3 °F 90% 29.88 in 10.0 mi North 10.4 mph 16.1 mph 0.01 in Rain Light Rain
9:55 AM 46.0 °F 42.5 °F 42.1 °F 86% 29.90 in 10.0 mi North 6.9 mph - 0.01 in Rain Light Rain
10:15 AM 46.0 °F 43.1 °F 42.4 °F 87% 29.88 in 10.0 mi North 5.8 mph - 0.02 in Rain Rain
10:35 AM 45.7 °F 44.4 °F 42.4 °F 88% 29.88 in 10.0 mi East 3.5 mph - 0.02 in Rain Light Rain
10:55 AM 45.5 °F - 42.8 °F 90% 29.88 in 10.0 mi Calm Calm - 0.03 in Rain Light Rain
11:15 AM 45.5 °F - 43.0 °F 91% 29.87 in 10.0 mi Calm Calm - N/A Rain Light Rain
11:35 AM 46.4 °F 40.7 °F 43.7 °F 90% 29.91 in 10.0 mi WNW 12.7 mph - N/A   Scattered Clouds
12:15 PM 47.7 °F - 44.4 °F 89% 29.93 in 10.0 mi WNW 6.9 mph - N/A   Overcast
12:35 PM 49.6 °F - 45.1 °F 84% 29.90 in 10.0 mi NW 10.4 mph - N/A   Mostly Cloudy
12:55 PM 51.8 °F - 46.6 °F 82% 29.89 in 10.0 mi NNW 4.6 mph - N/A   Scattered Clouds
1:15 PM 54.1 °F - 46.2 °F 75% 29.88 in 10.0 mi NW 8.1 mph - N/A   Clear
1:35 PM 56.1 °F - 46.2 °F 69% 29.87 in 10.0 mi North 9.2 mph - N/A   Clear
1:55 PM 57.9 °F - 46.2 °F 65% 29.87 in 10.0 mi NW 9.2 mph - N/A   Clear
2:15 PM 58.8 °F - 45.9 °F 62% 29.86 in 10.0 mi NW 8.1 mph 17.3 mph N/A   Clear
2:35 PM 59.5 °F - 44.8 °F 58% 29.85 in 10.0 mi NW 10.4 mph 16.1 mph N/A   Clear
2:55 PM 60.4 °F - 45.1 °F 57% 29.84 in 10.0 mi NW 8.1 mph - N/A   Clear
3:15 PM 61.7 °F - 45.7 °F 56% 29.84 in 10.0 mi WNW 10.4 mph - N/A   Clear
3:35 PM 63.0 °F - 45.0 °F 52% 29.82 in 10.0 mi NW 5.8 mph - N/A   Clear
3:55 PM 64.8 °F - 44.4 °F 48% 29.82 in 10.0 mi NW 8.1 mph - N/A   Clear
4:15 PM 65.7 °F - 44.1 °F 46% 29.81 in 10.0 mi North 9.2 mph - N/A   Clear
4:35 PM 66.4 °F - 44.1 °F 44% 29.80 in 10.0 mi NNW 6.9 mph - N/A   Clear
4:55 PM 66.7 °F - 45.0 °F 45% 29.80 in 10.0 mi NNW 3.5 mph - N/A   Clear
5:15 PM 67.3 °F - 45.5 °F 45% 29.81 in 10.0 mi West 5.8 mph - N/A   Clear
5:35 PM 67.6 °F - 45.1 °F 44% 29.81 in 10.0 mi NW 5.8 mph - N/A   Clear
5:55 PM 67.5 °F - 44.8 °F 44% 29.82 in 10.0 mi North 5.8 mph - N/A   Clear
6:15 PM 67.1 °F - 43.5 °F 42% 29.81 in 10.0 mi North 8.1 mph - N/A   Clear
6:35 PM 66.6 °F - 43.5 °F 43% 29.82 in 10.0 mi NNW 6.9 mph - N/A   Clear
6:55 PM 65.8 °F - 44.1 °F 45% 29.83 in 10.0 mi NW 5.8 mph - N/A   Clear
7:15 PM 64.6 °F - 44.2 °F 48% 29.83 in 10.0 mi NNW 3.5 mph - N/A   Clear
7:35 PM 62.2 °F - 47.5 °F 58% 29.83 in 10.0 mi Calm Calm - N/A   Clear
7:55 PM 57.9 °F - 50.5 °F 76% 29.83 in 10.0 mi Calm Calm - N/A   Clear
8:15 PM 55.9 °F - 50.7 °F 83% 29.84 in 10.0 mi Calm Calm - N/A   Clear
8:35 PM 54.3 °F - 50.9 °F 88% 29.85 in 10.0 mi Calm Calm - N/A   Clear
8:55 PM 52.9 °F - 49.8 °F 89% 29.85 in 10.0 mi Calm Calm - N/A   Clear
9:15 PM 51.8 °F - 49.3 °F 91% 29.86 in 10.0 mi Calm Calm - N/A   Clear
9:35 PM 51.1 °F - 48.9 °F 92% 29.88 in 10.0 mi Calm Calm - N/A   Clear
9:55 PM 50.5 °F - 48.7 °F 94% 29.88 in 10.0 mi Calm Calm - N/A   Clear
10:15 PM 49.6 °F - 48.2 °F 95% 29.89 in 10.0 mi Calm Calm - N/A   Clear
10:35 PM 49.1 °F - 47.7 °F 95% 29.89 in 10.0 mi Calm Calm - N/A   Clear
10:55 PM 48.4 °F - 47.3 °F 96% 29.90 in 10.0 mi Calm Calm - N/A   Clear
11:15 PM 48.0 °F - 46.9 °F 96% 29.90 in 10.0 mi Calm Calm - N/A   Clear
11:35 PM 47.3 °F - 46.4 °F 97% 29.89 in 10.0 mi Calm Calm - N/A   Clear
11:55 PM 47.1 °F - 46.2 °F 97% 29.90 in 10.0 mi Calm Calm - N/A   Clear